NOAA 16 DEB, 41652

Orbit data source: Space-Track

NOAA 16 DEB, 41652 is space debris in SSO originally from a launch on Thu, 21 Sep 2000 UTC launched from the Air Force Western Test Range (AFWTR). Debris objects in space refer to the collection of defunct objects orbiting the Earth. Examples of debris include non-operational satellites, rocket bodies, and fragments generated from explosions, collisions, or faulty payload assembly.

Loading next visibility...
Identifier
41652, 2000-055NR
Orbit
SSO
Country
Flag of USUS
Related business
Manufacturer
Unknown
Mission
Spacecraft
Bus & Motor
Unknown
Mass
Unknown
Launch date (UTC)
2000-09-21 (26 years ago)
Launch vehicle
Unknown
Launch site
Air Force Western Test Range (AFWTR)
Object type
Payload
Rocket body
Debris
Shape & HBR
Unknown shape, 0.1 m
Radar Cross Section
Small (<0.1 m²)

Expand to show TLE details & history
Last TLE update: 21 hours ago

TLE from 21 hours ago
0 NOAA 16 DEB
1 41652U 00055NR  26119.25053681  .00011529  00000-0  32195-2 0  9997
2 41652  98.8753 233.6726 0032388 211.6138 148.3108 14.46066855517952
Epoch: 2026-04-29T06:00Z
TLE epoch observation values (Epoch: 2026-04-29T06:00:46.380Z)
Latitude
0.00004°
Longitude
-73.73485°
Altitude
761.106 km
Speed
7.463 km/s
True Right ascension
15h 34m 41s
True Declination
0° 00' 00"
Sunlit
Object was in full shadow at epoch
Visualization orbit readout
Latitude
Unknown
Longitude
Unknown
Altitude
Unknown
Speed
Unknown
Apparent Right ascension
Unknown
Apparent Declination
Unknown
Sunlit
N/A
Visualization observer readout
Local Sidereal Time
10:32:41
Azimuth
Unknown
Elevation
Unknown
Doppler factor
Unknown
Orbital elements
Apogee altitude
758.696 km
Perigee altitude
712.615 km
Semi-major axis
7,113.793 km
Eccentricity
0.00324
Inclination
98.8753°
RAAN
233.6726°
Arg. of periapsis
211.6138°
True anomaly
148.50509°
Mean anomaly
148.3108°
Eccentric anomaly
148.40801°
Mean motion
3.61736 °/min
Orbital period
99.52 mins
BSTAR
0.0032195
Loading maneuver chart data...
Computing Atmospheric mass density...
Loading historical data...
Loading historical data...
Loading historical data...
Loading historical data...
Loading historical data...
Loading historical data...
Loading historical data...

Documentation

Showing up to 5 results
|